User: anonymous
Location: Caltech
(34.1382°N, 118.1253°W)
Time: 04:15:46
(UTC-07:00)
Language:

Cosmos 2219 Rocket - Orbit

View from above orbital plane
View from above orbital plane
View from above satellite
View from above satellite

Ground track
Ground track

The orbit data is extracted from the following two-line orbital elements,

1 22220U 92076B   14244.04147260  .00000131  00000-0  90222-4 0  3876
2 22220 071.0010 046.4504 0012335 017.8916 114.6899 14.16315765126329
Epoch (UTC): 01 September 2014 00:59:43
Eccentricity: 0.0012335
inclination: 71.0010°
perigee height: 829 km
apogee height: 847 km
right ascension of ascending node: 46.4504°
argument of perigee: 17.8916°
revolutions per day: 14.16315765
mean anomaly at epoch: 114.6899°
orbit number at epoch: 12632

The dashed part of the orbit path shows where the satellite is in the earth's shadow,  

DLR